Regional Weather Roundup
Issued by NWS

Home | Current Version | Previous Version | Graphics & Text | Print | Product List | Glossary On
Versions: 1 2 3 4 5 6 7 8 9 10 11 12 13 14 15 16 17 18 19 20 21 22 23 24 25 26 27 28 29 30 31 32 33 34 35 36 37 38 39 40 41 42 43 44 45 46 47 48 49 50
000
ASUS45 KBOI 030910
RWRID
WEATHER ROUNDUP FOR IDAHO
NATIONAL WEATHER SERVICE BOISE ID
200 AM MST TUE MAR 03 2015

NOTE: "FAIR" INDICATES FEW OR NO CLOUDS BELOW 12000 FEET
WITH NO SIGNIFICANT WEATHER AND/OR OBSTRUCTIONS TO VISIBILITY

IDZ012-014-031000-
SOUTHWEST IDAHO


CITY           SKY/WX    TMP DP  RH WIND       PRES   REMARKS
BOISE          CLOUDY    35  25  66 NW15G22   29.87R WCI  25
CALDWELL       CLOUDY    36  19  51 NW16      29.92R WCI  26
MOUNTAIN HOME  CLOUDY    34  23  63 NW32G39   29.83S WCI  20
$$

IDZ016-017-031000-
SOUTHCENTRAL IDAHO


CITY           SKY/WX    TMP DP  RH WIND       PRES   REMARKS
BURLEY         CLOUDY    33  22  63 W22       29.76R WCI  21
JEROME         CLOUDY    31  20  63 SW24G33   29.78R WCI  17
TWIN FALLS     CLOUDY    33  24  69 W20G26    29.79R WCI  21
$$

IDZ019>023-031000-
SOUTHEAST IDAHO


CITY           SKY/WX    TMP DP  RH WIND       PRES   REMARKS
IDAHO FALLS    CLOUDY    31  20  63 SW18      29.68S WCI  19
POCATELLO      MOCLDY    34  19  54 SW24G31   29.72R WCI  21
REXBURG        LGT SNOW  23  32 100 NE15G21   29.71S VSB 1   WCI  10
$$

IDZ006-010-011-018-031-032-031000-
CENTRAL IDAHO MOUNTAINS


CITY           SKY/WX    TMP DP  RH WIND       PRES   REMARKS
MCCALL         CLEAR     23  17  78 N3        29.81R
HAILEY         MOCLDY    32  19  59 NW3       29.67S
STANLEY          N/A     24  16  71 NW6       29.72R WCI  17
SALMON         CLOUDY    27   7  43 N17       29.84R WCI  14
CHALLIS        CLOUDY    29  19  66 N15       29.73R WCI  18
$$

IDZ002-004-006-007-026-031000-
NORTHERN IDAHO


CITY           SKY/WX    TMP DP  RH WIND       PRES   REMARKS
LEWISTON       MOCLDY    34  31  88 W6        30.04R WCI  29
LOWELL           N/A     33  21  61 CALM      30.04R
COEUR D`ALENE  CLEAR     27  12  54 NE13      30.09R WCI  16
MULLAN PASS    CLOUDY     8   6  92 CALM      29.86R
$$


USA.gov is the U.S. government's official web portal to all federal, state and local government web resources and services.